Time,TemperatureF,DewpointF,PressureIn,WindDirection,WindDirectionDegrees,WindSpeedMPH,WindSpeedGustMPH,Humidity,HourlyPrecipIn,Conditions,Clouds,dailyrainin,SoftwareType,DateUTC
2013-07-09 00:02:00,69.4,66.0,30.12,NNE,22,0.0,2.0,89,0.00,,,0.00,meteohub,2013-07-09 04:02:00,
2013-07-09 00:07:00,69.4,66.0,30.12,NNE,22,0.0,2.0,89,0.00,,,0.00,meteohub,2013-07-09 04:07:00,
2013-07-09 00:12:00,69.4,66.0,30.12,NE,45,0.0,0.0,89,0.00,,,0.00,meteohub,2013-07-09 04:12:00,
2013-07-09 00:17:00,69.3,65.8,30.12,NE,45,0.0,0.0,89,0.00,,,0.00,meteohub,2013-07-09 04:17:00,
2013-07-09 00:22:00,69.3,65.8,30.12,SSE,158,0.0,0.0,89,0.00,,,0.00,meteohub,2013-07-09 04:22:00,
2013-07-09 00:27:00,69.3,66.2,30.12,East,90,0.0,0.0,90,0.00,,,0.00,meteohub,2013-07-09 04:27:00,
2013-07-09 00:32:00,69.3,65.8,30.12,East,90,0.0,0.0,89,0.00,,,0.00,meteohub,2013-07-09 04:32:00,
2013-07-09 00:37:00,69.3,66.2,30.12,NW,315,0.0,0.0,90,0.00,,,0.00,meteohub,2013-07-09 04:37:00,
2013-07-09 00:42:00,69.3,66.2,30.12,WNW,292,0.0,0.0,90,0.00,,,0.00,meteohub,2013-07-09 04:42:00,
2013-07-09 00:47:00,69.3,66.2,30.12,South,180,0.0,0.0,90,0.00,,,0.00,meteohub,2013-07-09 04:47:00,
2013-07-09 00:52:00,69.3,66.2,30.12,NNW,338,0.0,1.0,90,0.00,,,0.00,meteohub,2013-07-09 04:52:00,
2013-07-09 00:57:00,69.3,66.2,30.12,North,0,0.0,1.0,90,0.00,,,0.00,meteohub,2013-07-09 04:57:00,
2013-07-09 01:02:00,69.3,66.6,30.12,ENE,68,0.0,1.0,91,0.00,,,0.00,meteohub,2013-07-09 05:02:00,
2013-07-09 01:07:00,69.3,66.6,30.12,SW,225,0.0,0.0,91,0.00,,,0.00,meteohub,2013-07-09 05:07:00,
2013-07-09 01:12:00,69.1,66.4,30.12,NE,45,0.0,2.0,91,0.00,,,0.00,meteohub,2013-07-09 05:12:00,
2013-07-09 01:17:00,69.1,66.4,30.12,North,0,0.0,2.0,91,0.00,,,0.00,meteohub,2013-07-09 05:17:00,
2013-07-09 01:22:00,68.9,66.2,30.12,North,0,0.0,0.0,91,0.00,,,0.00,meteohub,2013-07-09 05:22:00,
2013-07-09 01:27:00,68.7,66.4,30.12,NNW,338,2.0,0.0,92,0.00,,,0.00,meteohub,2013-07-09 05:27:00,
2013-07-09 01:32:00,68.5,66.2,30.12,NW,315,0.0,2.0,92,0.00,,,0.00,meteohub,2013-07-09 05:32:00,
2013-07-09 01:37:00,68.5,66.2,30.12,North,0,0.0,2.0,92,0.00,,,0.00,meteohub,2013-07-09 05:37:00,
2013-07-09 01:42:00,68.4,66.0,30.12,NNW,338,0.0,2.0,92,0.00,,,0.00,meteohub,2013-07-09 05:42:00,
2013-07-09 01:47:00,68.2,65.8,30.12,NNE,22,0.0,1.0,92,0.00,,,0.00,meteohub,2013-07-09 05:47:00,
2013-07-09 01:52:00,68.2,65.8,30.12,NW,315,0.0,1.0,92,0.00,,,0.00,meteohub,2013-07-09 05:52:00,
2013-07-09 01:57:00,68.0,65.8,30.12,WNW,292,0.0,1.0,93,0.00,,,0.00,meteohub,2013-07-09 05:57:00,
2013-07-09 02:02:00,67.8,65.7,30.12,NW,315,0.0,2.0,93,0.00,,,0.00,meteohub,2013-07-09 06:02:00,
2013-07-09 02:07:00,67.6,65.5,30.12,NNW,338,0.0,2.0,93,0.00,,,0.00,meteohub,2013-07-09 06:07:00,
2013-07-09 02:12:00,67.5,65.3,30.12,NW,315,0.0,2.0,93,0.00,,,0.00,meteohub,2013-07-09 06:12:00,
2013-07-09 02:17:00,67.3,65.5,30.12,NNW,338,0.0,1.0,94,0.00,,,0.00,meteohub,2013-07-09 06:17:00,
2013-07-09 02:22:00,67.1,65.3,30.12,NNW,338,1.0,0.0,94,0.00,,,0.00,meteohub,2013-07-09 06:22:00,
2013-07-09 02:27:00,66.7,64.9,30.12,NNW,338,0.0,1.0,94,0.00,,,0.00,meteohub,2013-07-09 06:27:00,
2013-07-09 02:32:00,66.7,64.9,30.12,NW,315,0.0,1.0,94,0.00,,,0.00,meteohub,2013-07-09 06:32:00,
2013-07-09 02:37:00,66.4,64.9,30.12,NW,315,0.0,1.0,95,0.00,,,0.00,meteohub,2013-07-09 06:37:00,
2013-07-09 02:42:00,66.4,64.9,30.12,NNW,338,0.0,0.0,95,0.00,,,0.00,meteohub,2013-07-09 06:42:00,
2013-07-09 02:47:00,66.4,64.9,30.14,North,0,0.0,0.0,95,0.00,,,0.00,meteohub,2013-07-09 06:47:00,
2013-07-09 02:52:00,66.4,64.9,30.14,NNW,338,0.0,0.0,95,0.00,,,0.00,meteohub,2013-07-09 06:52:00,
2013-07-09 02:57:00,66.2,64.9,30.14,NNW,338,0.0,0.0,96,0.00,,,0.00,meteohub,2013-07-09 06:57:00,
2013-07-09 03:02:00,66.2,64.9,30.12,NNW,338,0.0,0.0,96,0.00,,,0.00,meteohub,2013-07-09 07:02:00,
2013-07-09 03:07:00,66.0,64.8,30.12,NW,315,0.0,0.0,96,0.00,,,0.00,meteohub,2013-07-09 07:07:00,
2013-07-09 03:12:00,66.0,64.8,30.12,NNW,338,0.0,0.0,96,0.00,,,0.00,meteohub,2013-07-09 07:12:00,
2013-07-09 03:17:00,66.0,64.8,30.12,NE,45,0.0,0.0,96,0.00,,,0.00,meteohub,2013-07-09 07:17:00,
2013-07-09 03:22:00,66.0,64.8,30.12,NE,45,1.0,1.0,96,0.00,,,0.00,meteohub,2013-07-09 07:22:00,
2013-07-09 03:27:00,66.0,64.8,30.12,North,0,0.0,2.0,96,0.00,,,0.00,meteohub,2013-07-09 07:27:00,
2013-07-09 03:32:00,66.0,64.8,30.12,NNW,338,0.0,2.0,96,0.00,,,0.00,meteohub,2013-07-09 07:32:00,
2013-07-09 03:37:00,65.8,64.6,30.12,NNW,338,0.0,2.0,96,0.00,,,0.00,meteohub,2013-07-09 07:37:00,
2013-07-09 03:42:00,65.8,64.6,30.12,NNW,338,0.0,2.0,96,0.00,,,0.00,meteohub,2013-07-09 07:42:00,
2013-07-09 03:47:00,65.8,64.6,30.12,NW,315,1.0,0.0,96,0.00,,,0.00,meteohub,2013-07-09 07:47:00,
2013-07-09 03:52:00,65.8,64.6,30.12,NNW,338,0.0,2.0,96,0.00,,,0.00,meteohub,2013-07-09 07:52:00,
2013-07-09 04:02:00,65.8,64.6,30.12,NNE,22,0.0,2.0,96,0.00,,,0.00,meteohub,2013-07-09 08:02:00,
2013-07-09 04:07:00,65.8,64.6,30.12,North,0,0.0,1.0,96,0.00,,,0.00,meteohub,2013-07-09 08:07:00,
2013-07-09 04:12:00,65.8,64.6,30.12,NNW,338,0.0,1.0,96,0.00,,,0.00,meteohub,2013-07-09 08:12:00,
2013-07-09 04:17:00,65.8,64.6,30.12,North,0,0.0,0.0,96,0.00,,,0.00,meteohub,2013-07-09 08:17:00,
2013-07-09 04:22:00,65.8,64.9,30.12,NNW,338,0.0,0.0,97,0.00,,,0.00,meteohub,2013-07-09 08:22:00,
2013-07-09 04:27:00,65.8,64.9,30.12,NNW,338,0.0,0.0,97,0.00,,,0.00,meteohub,2013-07-09 08:27:00,
2013-07-09 04:32:00,65.8,64.9,30.12,NNW,338,0.0,0.0,97,0.00,,,0.00,meteohub,2013-07-09 08:32:00,
2013-07-09 04:37:00,65.8,64.9,30.12,ESE,112,0.0,0.0,97,0.00,,,0.00,meteohub,2013-07-09 08:37:00,
2013-07-09 04:42:00,65.8,64.9,30.12,SSE,158,0.0,0.0,97,0.00,,,0.00,meteohub,2013-07-09 08:42:00,
2013-07-09 04:47:00,65.8,64.9,30.09,NE,45,0.0,0.0,97,0.00,,,0.00,meteohub,2013-07-09 08:47:00,
2013-07-09 04:52:00,65.8,64.9,30.09,NE,45,0.0,0.0,97,0.00,,,0.00,meteohub,2013-07-09 08:52:00,
2013-07-09 04:57:00,65.8,64.9,30.09,NE,45,0.0,0.0,97,0.00,,,0.00,meteohub,2013-07-09 08:57:00,
2013-07-09 05:02:00,65.8,64.9,30.12,NE,45,0.0,0.0,97,0.00,,,0.00,meteohub,2013-07-09 09:02:00,
2013-07-09 05:07:00,65.8,64.9,30.12,NE,45,0.0,0.0,97,0.00,,,0.00,meteohub,2013-07-09 09:07:00,
2013-07-09 05:12:00,65.8,64.9,30.12,NE,45,0.0,0.0,97,0.00,,,0.00,meteohub,2013-07-09 09:12:00,
2013-07-09 05:17:00,65.8,64.9,30.12,NE,45,0.0,0.0,97,0.00,,,0.00,meteohub,2013-07-09 09:17:00,
2013-07-09 05:22:00,65.8,64.9,30.12,NE,45,0.0,0.0,97,0.00,,,0.00,meteohub,2013-07-09 09:22:00,
2013-07-09 05:27:00,65.8,64.9,30.12,NE,45,0.0,0.0,97,0.00,,,0.00,meteohub,2013-07-09 09:27:00,
2013-07-09 05:32:00,65.8,64.9,30.12,NE,45,0.0,0.0,97,0.00,,,0.00,meteohub,2013-07-09 09:32:00,
2013-07-09 05:37:00,65.8,64.9,30.12,NE,45,0.0,0.0,97,0.00,,,0.00,meteohub,2013-07-09 09:37:00,
2013-07-09 05:42:00,65.8,64.9,30.12,NE,45,0.0,0.0,97,0.00,,,0.00,meteohub,2013-07-09 09:42:00,
2013-07-09 05:47:00,65.8,65.3,30.12,NE,45,0.0,0.0,98,0.00,,,0.00,meteohub,2013-07-09 09:47:00,
2013-07-09 05:52:00,65.8,65.3,30.12,SSE,158,0.0,0.0,98,0.00,,,0.00,meteohub,2013-07-09 09:52:00,
2013-07-09 05:57:00,66.0,65.5,30.12,SSE,158,0.0,0.0,98,0.00,,,0.00,meteohub,2013-07-09 09:57:00,
2013-07-09 06:02:00,66.0,65.5,30.12,SSE,158,0.0,0.0,98,0.00,,,0.00,meteohub,2013-07-09 10:02:00,
2013-07-09 06:07:00,66.0,65.5,30.12,SSE,158,0.0,0.0,98,0.00,,,0.00,meteohub,2013-07-09 10:07:00,
2013-07-09 06:12:00,66.0,65.5,30.12,SSE,158,0.0,0.0,98,0.00,,,0.00,meteohub,2013-07-09 10:12:00,
2013-07-09 06:17:00,66.2,65.3,30.14,SSE,158,0.0,0.0,97,0.00,,,0.00,meteohub,2013-07-09 10:17:00,
2013-07-09 06:22:00,66.2,65.7,30.14,SSE,158,0.0,0.0,98,0.00,,,0.00,meteohub,2013-07-09 10:22:00,
2013-07-09 06:27:00,66.2,65.3,30.14,SSE,158,0.0,0.0,97,0.00,,,0.00,meteohub,2013-07-09 10:27:00,
2013-07-09 06:32:00,66.2,65.3,30.14,SSE,158,0.0,0.0,97,0.00,,,0.00,meteohub,2013-07-09 10:32:00,
2013-07-09 06:37:00,66.2,65.3,30.14,SSE,158,0.0,0.0,97,0.00,,,0.00,meteohub,2013-07-09 10:37:00,
2013-07-09 06:42:00,66.2,65.3,30.14,SSE,158,0.0,0.0,97,0.00,,,0.00,meteohub,2013-07-09 10:42:00,
2013-07-09 06:47:00,66.2,65.3,30.14,SSE,158,0.0,0.0,97,0.00,,,0.00,meteohub,2013-07-09 10:47:00,
2013-07-09 06:52:00,66.2,65.3,30.14,SSE,158,0.0,0.0,97,0.00,,,0.00,meteohub,2013-07-09 10:52:00,
2013-07-09 06:57:00,66.2,65.3,30.14,SSE,158,0.0,0.0,97,0.00,,,0.00,meteohub,2013-07-09 10:57:00,
2013-07-09 07:02:00,66.4,65.5,30.14,SSE,158,0.0,0.0,97,0.00,,,0.00,meteohub,2013-07-09 11:02:00,
2013-07-09 07:07:00,66.4,65.5,30.14,SSE,158,0.0,0.0,97,0.00,,,0.00,meteohub,2013-07-09 11:07:00,
2013-07-09 07:12:00,66.4,65.5,30.14,SSE,158,0.0,0.0,97,0.00,,,0.00,meteohub,2013-07-09 11:12:00,
2013-07-09 07:17:00,66.4,65.5,30.17,ESE,112,0.0,0.0,97,0.00,,,0.00,meteohub,2013-07-09 11:17:00,
2013-07-09 07:22:00,66.4,65.5,30.17,NNW,338,0.0,0.0,97,0.00,,,0.00,meteohub,2013-07-09 11:22:00,
2013-07-09 07:27:00,66.4,65.5,30.17,North,0,0.0,0.0,97,0.00,,,0.00,meteohub,2013-07-09 11:27:00,
2013-07-09 07:32:00,66.4,65.8,30.17,NNW,338,2.0,0.0,98,0.00,,,0.00,meteohub,2013-07-09 11:32:00,
2013-07-09 07:37:00,66.2,65.7,30.17,NNW,338,1.0,2.0,98,0.00,,,0.00,meteohub,2013-07-09 11:37:00,
2013-07-09 07:42:00,66.2,65.7,30.17,NNW,338,0.0,2.0,98,0.00,,,0.00,meteohub,2013-07-09 11:42:00,
2013-07-09 07:47:00,66.2,65.7,30.17,NNW,338,0.0,2.0,98,0.00,,,0.00,meteohub,2013-07-09 11:47:00,
2013-07-09 07:52:00,66.2,65.7,30.17,NNW,338,0.0,2.0,98,0.00,,,0.00,meteohub,2013-07-09 11:52:00,
2013-07-09 07:57:00,66.2,65.7,30.17,North,0,0.0,1.0,98,0.00,,,0.00,meteohub,2013-07-09 11:57:00,
2013-07-09 08:02:00,66.2,65.7,30.17,NNW,338,0.0,0.0,98,0.00,,,0.00,meteohub,2013-07-09 12:02:00,
2013-07-09 08:07:00,66.2,65.7,30.17,NNE,22,0.0,0.0,98,0.00,,,0.00,meteohub,2013-07-09 12:07:00,
2013-07-09 08:12:00,66.2,65.7,30.17,NE,45,0.0,0.0,98,0.00,,,0.00,meteohub,2013-07-09 12:12:00,
2013-07-09 08:22:00,66.2,65.7,30.17,SE,135,0.0,0.0,98,0.00,,,0.00,meteohub,2013-07-09 12:22:00,
2013-07-09 08:27:00,66.4,65.8,30.17,NE,45,1.0,0.0,98,0.00,,,0.00,meteohub,2013-07-09 12:27:00,
2013-07-09 08:32:00,66.6,66.0,30.17,North,0,0.0,1.0,98,0.00,,,0.00,meteohub,2013-07-09 12:32:00,
2013-07-09 08:37:00,66.7,66.2,30.17,ENE,68,0.0,1.0,98,0.00,,,0.00,meteohub,2013-07-09 12:37:00,
2013-07-09 08:42:00,66.9,66.0,30.17,NNE,22,0.0,1.0,97,0.00,,,0.00,meteohub,2013-07-09 12:42:00,
2013-07-09 08:47:00,66.7,65.8,30.17,NNE,22,0.0,0.0,97,0.00,,,0.00,meteohub,2013-07-09 12:47:00,
2013-07-09 08:52:00,66.9,66.0,30.17,NNE,22,0.0,0.0,97,0.00,,,0.00,meteohub,2013-07-09 12:52:00,
2013-07-09 08:57:00,66.9,66.0,30.17,NNE,22,0.0,0.0,97,0.00,,,0.00,meteohub,2013-07-09 12:57:00,
2013-07-09 09:02:00,66.9,66.0,30.14,NNE,22,0.0,0.0,97,0.00,,,0.00,meteohub,2013-07-09 13:02:00,
2013-07-09 09:07:00,66.9,66.0,30.14,NNE,22,0.0,0.0,97,0.00,,,0.00,meteohub,2013-07-09 13:07:00,
2013-07-09 09:12:00,66.9,66.0,30.14,NNE,22,0.0,0.0,97,0.00,,,0.00,meteohub,2013-07-09 13:12:00,
2013-07-09 09:17:00,66.9,66.0,30.17,NNE,22,0.0,0.0,97,0.00,,,0.00,meteohub,2013-07-09 13:17:00,
2013-07-09 09:22:00,67.1,66.2,30.17,NNE,22,0.0,0.0,97,0.00,,,0.00,meteohub,2013-07-09 13:22:00,
2013-07-09 09:27:00,67.1,66.2,30.17,NE,45,0.0,0.0,97,0.00,,,0.00,meteohub,2013-07-09 13:27:00,
2013-07-09 09:32:00,67.3,66.4,30.17,NNW,338,0.0,0.0,97,0.00,,,0.00,meteohub,2013-07-09 13:32:00,
2013-07-09 09:37:00,67.5,66.6,30.17,NW,315,0.0,2.0,97,0.00,,,0.00,meteohub,2013-07-09 13:37:00,
2013-07-09 09:42:00,67.6,66.7,30.17,ESE,112,0.0,2.0,97,0.00,,,0.00,meteohub,2013-07-09 13:42:00,
2013-07-09 09:47:00,67.8,66.6,30.17,NNW,338,1.0,3.0,96,0.00,,,0.00,meteohub,2013-07-09 13:47:00,
2013-07-09 09:52:00,68.0,66.7,30.17,NNW,338,0.0,3.0,96,0.00,,,0.00,meteohub,2013-07-09 13:52:00,
2013-07-09 09:57:00,68.2,66.9,30.17,South,180,0.0,3.0,96,0.00,,,0.00,meteohub,2013-07-09 13:57:00,
2013-07-09 10:02:00,68.4,66.9,30.17,ESE,112,0.0,2.0,95,0.00,,,0.00,meteohub,2013-07-09 14:02:00,
2013-07-09 10:07:00,68.4,66.9,30.14,NNW,338,0.0,2.0,95,0.00,,,0.00,meteohub,2013-07-09 14:07:00,
2013-07-09 10:12:00,68.4,66.6,30.14,NNW,338,0.0,2.0,94,0.00,,,0.00,meteohub,2013-07-09 14:12:00,
2013-07-09 10:17:00,68.4,66.6,30.17,NNW,338,0.0,2.0,94,0.00,,,0.00,meteohub,2013-07-09 14:17:00,
2013-07-09 10:22:00,68.5,66.7,30.17,NNE,22,0.0,0.0,94,0.00,,,0.00,meteohub,2013-07-09 14:22:00,
2013-07-09 10:27:00,68.5,66.7,30.17,NW,315,2.0,0.0,94,0.00,,,0.00,meteohub,2013-07-09 14:27:00,
2013-07-09 10:32:00,68.5,66.7,30.17,NW,315,1.0,2.0,94,0.00,,,0.00,meteohub,2013-07-09 14:32:00,
2013-07-09 10:37:00,68.5,66.4,30.17,WNW,292,0.0,2.0,93,0.00,,,0.00,meteohub,2013-07-09 14:37:00,
2013-07-09 10:42:00,68.7,66.6,30.17,NW,315,0.0,2.0,93,0.00,,,0.00,meteohub,2013-07-09 14:42:00,
2013-07-09 10:47:00,68.7,66.6,30.17,South,180,0.0,2.0,93,0.00,,,0.00,meteohub,2013-07-09 14:47:00,
2013-07-09 10:52:00,68.7,66.6,30.17,South,180,0.0,2.0,93,0.00,,,0.00,meteohub,2013-07-09 14:52:00,
2013-07-09 10:57:00,68.7,66.6,30.17,WNW,292,0.0,2.0,93,0.00,,,0.00,meteohub,2013-07-09 14:57:00,
2013-07-09 11:02:00,68.9,66.7,30.17,NW,315,0.0,2.0,93,0.00,,,0.00,meteohub,2013-07-09 15:02:00,
2013-07-09 11:07:00,69.1,66.7,30.17,SSE,158,0.0,1.0,92,0.00,,,0.00,meteohub,2013-07-09 15:07:00,
2013-07-09 11:12:00,69.3,66.9,30.17,NNW,338,0.0,3.0,92,0.00,,,0.00,meteohub,2013-07-09 15:12:00,
2013-07-09 11:17:00,69.4,67.1,30.17,North,0,0.0,3.0,92,0.00,,,0.00,meteohub,2013-07-09 15:17:00,
2013-07-09 11:22:00,69.4,67.1,30.17,NNW,338,0.0,3.0,92,0.00,,,0.00,meteohub,2013-07-09 15:22:00,
2013-07-09 11:27:00,69.4,66.7,30.17,NNW,338,2.0,2.0,91,0.00,,,0.00,meteohub,2013-07-09 15:27:00,
2013-07-09 11:32:00,69.4,66.7,30.17,NNW,338,0.0,2.0,91,0.00,,,0.00,meteohub,2013-07-09 15:32:00,
2013-07-09 11:37:00,69.6,66.9,30.17,NNW,338,2.0,2.0,91,0.00,,,0.00,meteohub,2013-07-09 15:37:00,
2013-07-09 11:42:00,69.6,66.6,30.17,NNW,338,0.0,2.0,90,0.00,,,0.00,meteohub,2013-07-09 15:42:00,
2013-07-09 11:47:00,69.6,66.6,30.17,NW,315,2.0,2.0,90,0.00,,,0.00,meteohub,2013-07-09 15:47:00,
2013-07-09 11:52:00,69.8,66.7,30.17,NE,45,0.0,2.0,90,0.00,,,0.00,meteohub,2013-07-09 15:52:00,
2013-07-09 11:57:00,70.0,66.9,30.17,NE,45,0.0,2.0,90,0.00,,,0.00,meteohub,2013-07-09 15:57:00,
2013-07-09 12:02:00,70.2,67.1,30.17,ENE,68,2.0,2.0,90,0.00,,,0.00,meteohub,2013-07-09 16:02:00,
2013-07-09 12:07:00,70.5,67.5,30.17,North,0,0.0,3.0,90,0.00,,,0.00,meteohub,2013-07-09 16:07:00,
2013-07-09 12:12:00,70.7,67.3,30.17,NE,45,0.0,4.0,89,0.00,,,0.00,meteohub,2013-07-09 16:12:00,
2013-07-09 12:17:00,70.9,67.1,30.17,North,0,0.0,4.0,88,0.00,,,0.00,meteohub,2013-07-09 16:17:00,
2013-07-09 12:22:00,70.9,67.1,30.17,South,180,3.0,4.0,88,0.00,,,0.00,meteohub,2013-07-09 16:22:00,
2013-07-09 12:27:00,71.2,67.5,30.17,South,180,1.0,3.0,88,0.00,,,0.00,meteohub,2013-07-09 16:27:00,
2013-07-09 12:32:00,71.4,67.3,30.17,WNW,292,0.0,3.0,87,0.00,,,0.00,meteohub,2013-07-09 16:32:00,
2013-07-09 12:37:00,71.6,67.5,30.17,NE,45,0.0,3.0,87,0.00,,,0.00,meteohub,2013-07-09 16:37:00,
2013-07-09 12:42:00,71.6,67.1,30.17,East,90,0.0,3.0,86,0.00,,,0.00,meteohub,2013-07-09 16:42:00,
2013-07-09 12:47:00,71.6,67.1,30.17,SW,225,0.0,3.0,86,0.00,,,0.00,meteohub,2013-07-09 16:47:00,
2013-07-09 12:52:00,71.8,67.3,30.17,North,0,0.0,3.0,86,0.00,,,0.00,meteohub,2013-07-09 16:52:00,
2013-07-09 12:57:00,71.8,67.3,30.17,WNW,292,0.0,3.0,86,0.00,,,0.00,meteohub,2013-07-09 16:57:00,
2013-07-09 13:02:00,71.8,67.3,30.17,East,90,2.0,0.0,86,0.00,,,0.00,meteohub,2013-07-09 17:02:00,
2013-07-09 13:07:00,71.6,66.9,30.17,ENE,68,0.0,2.0,85,0.00,,,0.00,meteohub,2013-07-09 17:07:00,
2013-07-09 13:12:00,71.6,66.9,30.17,SSW,202,0.0,3.0,85,0.00,,,0.00,meteohub,2013-07-09 17:12:00,
2013-07-09 13:17:00,71.6,66.9,30.17,SW,225,0.0,3.0,85,0.00,,,0.00,meteohub,2013-07-09 17:17:00,
2013-07-09 13:22:00,71.4,67.1,30.17,SW,225,0.0,2.0,86,0.00,,,0.00,meteohub,2013-07-09 17:22:00,
2013-07-09 13:27:00,71.2,67.1,30.17,NE,45,0.0,0.0,87,0.00,,,0.00,meteohub,2013-07-09 17:27:00,
2013-07-09 13:32:00,71.2,66.9,30.17,South,180,0.0,3.0,86,0.00,,,0.00,meteohub,2013-07-09 17:32:00,
2013-07-09 13:37:00,71.2,66.9,30.17,West,270,1.0,3.0,86,0.00,,,0.00,meteohub,2013-07-09 17:37:00,
2013-07-09 13:42:00,71.2,66.9,30.17,South,180,2.0,3.0,86,0.00,,,0.00,meteohub,2013-07-09 17:42:00,
2013-07-09 13:47:00,71.2,66.9,30.14,NNE,22,0.0,4.0,86,0.00,,,0.00,meteohub,2013-07-09 17:47:00,
2013-07-09 13:52:00,71.2,67.1,30.14,NNE,22,0.0,4.0,87,0.00,,,0.00,meteohub,2013-07-09 17:52:00,
2013-07-09 14:02:00,71.1,66.9,30.14,WSW,248,0.0,0.0,87,0.00,,,0.00,meteohub,2013-07-09 18:02:00,
2013-07-09 14:07:00,71.1,67.3,30.14,WSW,248,0.0,0.0,88,0.00,,,0.00,meteohub,2013-07-09 18:07:00,
2013-07-09 14:12:00,71.2,67.5,30.14,WSW,248,0.0,0.0,88,0.00,,,0.00,meteohub,2013-07-09 18:12:00,
2013-07-09 14:17:00,71.4,67.3,30.14,ENE,68,0.0,2.0,87,0.00,,,0.00,meteohub,2013-07-09 18:17:00,
2013-07-09 14:22:00,71.6,67.5,30.14,SW,225,0.0,2.0,87,0.00,,,0.00,meteohub,2013-07-09 18:22:00,
2013-07-09 14:27:00,71.8,67.6,30.14,SSW,202,0.0,2.0,87,0.00,,,0.00,meteohub,2013-07-09 18:27:00,
2013-07-09 14:32:00,72.0,67.8,30.14,South,180,0.0,3.0,87,0.00,,,0.00,meteohub,2013-07-09 18:32:00,
2013-07-09 14:37:00,72.5,67.8,30.14,South,180,0.0,3.0,85,0.00,,,0.00,meteohub,2013-07-09 18:37:00,
2013-07-09 14:42:00,72.7,67.8,30.14,East,90,1.0,3.0,85,0.00,,,0.00,meteohub,2013-07-09 18:42:00,
2013-07-09 14:47:00,72.9,68.0,30.12,NE,45,0.0,3.0,85,0.00,,,0.00,meteohub,2013-07-09 18:47:00,
2013-07-09 14:52:00,72.9,66.7,30.12,WSW,248,1.0,3.0,81,0.00,,,0.00,meteohub,2013-07-09 18:52:00,
2013-07-09 14:57:00,72.9,67.1,30.12,ENE,68,2.0,3.0,82,0.00,,,0.00,meteohub,2013-07-09 18:57:00,
2013-07-09 15:02:00,72.9,67.5,30.14,South,180,0.0,3.0,83,0.00,,,0.00,meteohub,2013-07-09 19:02:00,
2013-07-09 15:07:00,72.9,67.5,30.14,SSE,158,2.0,3.0,83,0.00,,,0.00,meteohub,2013-07-09 19:07:00,
2013-07-09 15:12:00,72.9,67.1,30.14,NW,315,1.0,4.0,82,0.00,,,0.00,meteohub,2013-07-09 19:12:00,
2013-07-09 15:17:00,72.9,67.1,30.09,ENE,68,2.0,4.0,82,0.00,,,0.00,meteohub,2013-07-09 19:17:00,
2013-07-09 15:22:00,73.0,66.9,30.09,West,270,1.0,4.0,81,0.00,,,0.00,meteohub,2013-07-09 19:22:00,
2013-07-09 15:27:00,73.0,66.9,30.09,SW,225,2.0,4.0,81,0.00,,,0.00,meteohub,2013-07-09 19:27:00,
2013-07-09 15:32:00,73.0,67.3,30.12,NNW,338,2.0,3.0,82,0.00,,,0.00,meteohub,2013-07-09 19:32:00,
2013-07-09 15:37:00,72.9,66.7,30.12,NE,45,3.0,3.0,81,0.00,,,0.00,meteohub,2013-07-09 19:37:00,
2013-07-09 15:42:00,72.9,66.7,30.12,West,270,2.0,3.0,81,0.00,,,0.00,meteohub,2013-07-09 19:42:00,
2013-07-09 15:47:00,72.9,67.1,30.14,WNW,292,0.0,4.0,82,0.00,,,0.00,meteohub,2013-07-09 19:47:00,
2013-07-09 15:52:00,72.7,66.6,30.14,South,180,0.0,4.0,81,0.00,,,0.00,meteohub,2013-07-09 19:52:00,
2013-07-09 15:57:00,72.7,66.9,30.14,NNE,22,0.0,4.0,82,0.00,,,0.00,meteohub,2013-07-09 19:57:00,
2013-07-09 16:02:00,72.7,66.9,30.14,North,0,0.0,4.0,82,0.00,,,0.00,meteohub,2013-07-09 20:02:00,
2013-07-09 16:07:00,72.7,67.3,30.14,SSW,202,1.0,2.0,83,0.00,,,0.00,meteohub,2013-07-09 20:07:00,
2013-07-09 16:12:00,72.5,67.1,30.14,SSW,202,4.0,4.0,83,0.00,,,0.00,meteohub,2013-07-09 20:12:00,
2013-07-09 16:17:00,72.5,67.1,30.14,South,180,0.0,4.0,83,0.00,,,0.00,meteohub,2013-07-09 20:17:00,
2013-07-09 16:22:00,72.5,67.5,30.14,WSW,248,0.0,4.0,84,0.00,,,0.00,meteohub,2013-07-09 20:22:00,
2013-07-09 16:27:00,72.5,67.5,30.14,West,270,0.0,4.0,84,0.00,,,0.00,meteohub,2013-07-09 20:27:00,
2013-07-09 16:32:00,72.5,67.5,30.12,ESE,112,2.0,3.0,84,0.00,,,0.00,meteohub,2013-07-09 20:32:00,
2013-07-09 16:37:00,72.5,67.5,30.12,South,180,0.0,3.0,84,0.00,,,0.00,meteohub,2013-07-09 20:37:00,
2013-07-09 16:42:00,72.5,67.1,30.12,SSW,202,0.0,3.0,83,0.00,,,0.00,meteohub,2013-07-09 20:42:00,
2013-07-09 16:47:00,72.5,67.5,30.12,WNW,292,0.0,2.0,84,0.00,,,0.00,meteohub,2013-07-09 20:47:00,
2013-07-09 16:52:00,72.5,67.5,30.12,NE,45,1.0,1.0,84,0.00,,,0.00,meteohub,2013-07-09 20:52:00,
2013-07-09 17:02:00,72.7,67.6,30.12,NE,45,1.0,2.0,84,0.00,,,0.00,meteohub,2013-07-09 21:02:00,
2013-07-09 17:07:00,72.7,67.6,30.12,NNE,22,2.0,3.0,84,0.00,,,0.00,meteohub,2013-07-09 21:07:00,
2013-07-09 17:12:00,72.7,67.8,30.12,NE,45,0.0,3.0,85,0.00,,,0.00,meteohub,2013-07-09 21:12:00,
2013-07-09 17:17:00,73.0,68.2,30.12,North,0,0.0,2.0,85,0.00,,,0.00,meteohub,2013-07-09 21:17:00,
2013-07-09 17:22:00,73.2,68.4,30.12,NE,45,0.0,2.0,85,0.00,,,0.00,meteohub,2013-07-09 21:22:00,
2013-07-09 17:27:00,73.2,68.4,30.12,NE,45,0.0,1.0,85,0.00,,,0.00,meteohub,2013-07-09 21:27:00,
2013-07-09 17:32:00,73.2,68.2,30.12,NNW,338,0.0,1.0,84,0.00,,,0.00,meteohub,2013-07-09 21:32:00,
2013-07-09 17:37:00,73.0,68.0,30.12,NE,45,0.0,1.0,84,0.00,,,0.00,meteohub,2013-07-09 21:37:00,
2013-07-09 17:42:00,72.9,68.0,30.12,NNW,338,0.0,1.0,85,0.00,,,0.00,meteohub,2013-07-09 21:42:00,
2013-07-09 17:47:00,72.9,68.0,30.12,NNW,338,1.0,1.0,85,0.00,,,0.00,meteohub,2013-07-09 21:47:00,
2013-07-09 17:52:00,72.7,67.8,30.12,NNW,338,0.0,2.0,85,0.00,,,0.00,meteohub,2013-07-09 21:52:00,
2013-07-09 17:57:00,72.7,68.2,30.12,West,270,0.0,2.0,86,0.00,,,0.00,meteohub,2013-07-09 21:57:00,
2013-07-09 18:02:00,72.5,68.0,30.12,North,0,0.0,1.0,86,0.00,,,0.00,meteohub,2013-07-09 22:02:00,
2013-07-09 18:12:00,72.3,67.8,30.12,NNW,338,0.0,2.0,86,0.00,,,0.00,meteohub,2013-07-09 22:12:00,
2013-07-09 18:17:00,72.1,68.0,30.12,NNW,338,0.0,2.0,87,0.00,,,0.00,meteohub,2013-07-09 22:17:00,
2013-07-09 18:22:00,72.3,68.2,30.12,NE,45,2.0,2.0,87,0.00,,,0.00,meteohub,2013-07-09 22:22:00,
2013-07-09 18:27:00,72.3,68.2,30.12,WNW,292,0.0,3.0,87,0.00,,,0.00,meteohub,2013-07-09 22:27:00,
2013-07-09 18:32:00,72.3,68.2,30.12,SE,135,2.0,3.0,87,0.00,,,0.00,meteohub,2013-07-09 22:32:00,
2013-07-09 18:37:00,72.5,68.4,30.12,NW,315,0.0,3.0,87,0.00,,,0.00,meteohub,2013-07-09 22:37:00,
2013-07-09 18:42:00,72.5,68.4,30.12,North,0,0.0,3.0,87,0.00,,,0.00,meteohub,2013-07-09 22:42:00,
2013-07-09 18:47:00,72.5,68.4,30.12,South,180,1.0,4.0,87,0.00,,,0.00,meteohub,2013-07-09 22:47:00,
2013-07-09 18:52:00,72.5,68.4,30.12,West,270,0.0,4.0,87,0.00,,,0.00,meteohub,2013-07-09 22:52:00,
2013-07-09 18:57:00,72.5,68.4,30.12,SSE,158,0.0,4.0,87,0.00,,,0.00,meteohub,2013-07-09 22:57:00,
2013-07-09 19:02:00,72.5,68.4,30.12,SW,225,0.0,3.0,87,0.00,,,0.00,meteohub,2013-07-09 23:02:00,
2013-07-09 19:07:00,72.5,68.0,30.12,NNW,338,1.0,3.0,86,0.00,,,0.00,meteohub,2013-07-09 23:07:00,
2013-07-09 19:12:00,72.5,68.0,30.12,NNE,22,0.0,2.0,86,0.00,,,0.00,meteohub,2013-07-09 23:12:00,
2013-07-09 19:17:00,72.3,67.3,30.12,ENE,68,3.0,3.0,84,0.00,,,0.00,meteohub,2013-07-09 23:17:00,
2013-07-09 19:22:00,72.1,67.5,30.12,ESE,112,0.0,3.0,85,0.00,,,0.00,meteohub,2013-07-09 23:22:00,
2013-07-09 19:27:00,72.0,66.9,30.12,NNW,338,0.0,3.0,84,0.00,,,0.00,meteohub,2013-07-09 23:27:00,
2013-07-09 19:32:00,71.8,67.1,30.12,WNW,292,0.0,3.0,85,0.00,,,0.00,meteohub,2013-07-09 23:32:00,
2013-07-09 19:37:00,71.6,66.9,30.12,South,180,0.0,2.0,85,0.00,,,0.00,meteohub,2013-07-09 23:37:00,
2013-07-09 19:42:00,71.4,66.7,30.12,NW,315,2.0,4.0,85,0.00,,,0.00,meteohub,2013-07-09 23:42:00,
2013-07-09 19:47:00,71.4,66.7,30.12,NNW,338,0.0,4.0,85,0.00,,,0.00,meteohub,2013-07-09 23:47:00,
2013-07-09 19:52:00,71.2,66.6,30.12,NNE,22,0.0,4.0,85,0.00,,,0.00,meteohub,2013-07-09 23:52:00,
2013-07-09 19:57:00,71.1,66.7,30.12,WNW,292,0.0,4.0,86,0.00,,,0.00,meteohub,2013-07-09 23:57:00,
2013-07-09 20:02:00,70.9,66.6,30.12,WNW,292,0.0,4.0,86,0.00,,,0.00,meteohub,2013-07-10 00:02:00,
2013-07-09 20:07:00,70.7,66.4,30.12,NW,315,0.0,2.0,86,0.00,,,0.00,meteohub,2013-07-10 00:07:00,
2013-07-09 20:12:00,70.5,66.2,30.12,NW,315,0.0,1.0,86,0.00,,,0.00,meteohub,2013-07-10 00:12:00,
2013-07-09 20:17:00,70.5,66.2,30.12,NW,315,0.0,1.0,86,0.00,,,0.00,meteohub,2013-07-10 00:17:00,
2013-07-09 20:22:00,70.3,66.2,30.12,ENE,68,0.0,0.0,87,0.00,,,0.00,meteohub,2013-07-10 00:22:00,
2013-07-09 20:27:00,70.3,66.2,30.12,NW,315,0.0,0.0,87,0.00,,,0.00,meteohub,2013-07-10 00:27:00,
2013-07-09 20:32:00,70.2,66.0,30.12,East,90,1.0,0.0,87,0.00,,,0.00,meteohub,2013-07-10 00:32:00,
2013-07-09 20:37:00,70.2,66.0,30.12,SE,135,0.0,4.0,87,0.00,,,0.00,meteohub,2013-07-10 00:37:00,
2013-07-09 20:42:00,70.2,66.0,30.12,NNE,22,1.0,4.0,87,0.00,,,0.00,meteohub,2013-07-10 00:42:00,
2013-07-09 20:47:00,70.0,66.0,30.12,ENE,68,0.0,4.0,87,0.00,,,0.00,meteohub,2013-07-10 00:47:00,
2013-07-09 20:52:00,69.8,65.8,30.12,SSE,158,0.0,3.0,87,0.00,,,0.00,meteohub,2013-07-10 00:52:00,
2013-07-09 20:57:00,69.8,65.8,30.12,South,180,0.0,3.0,87,0.00,,,0.00,meteohub,2013-07-10 00:57:00,
2013-07-09 21:02:00,69.6,65.7,30.09,NNW,338,0.0,4.0,87,0.00,,,0.00,meteohub,2013-07-10 01:02:00,
2013-07-09 21:07:00,69.6,65.7,30.09,NE,45,0.0,4.0,87,0.00,,,0.00,meteohub,2013-07-10 01:07:00,
2013-07-09 21:12:00,69.6,65.7,30.09,NE,45,1.0,4.0,87,0.00,,,0.00,meteohub,2013-07-10 01:12:00,
2013-07-09 21:17:00,69.6,65.7,30.09,NE,45,0.0,4.0,87,0.00,,,0.00,meteohub,2013-07-10 01:17:00,
2013-07-09 21:22:00,69.6,65.7,30.09,NNE,22,1.0,6.0,87,0.00,,,0.00,meteohub,2013-07-10 01:22:00,
2013-07-09 21:27:00,69.6,65.7,30.09,ESE,112,1.0,6.0,87,0.00,,,0.00,meteohub,2013-07-10 01:27:00,
2013-07-09 21:32:00,69.6,65.3,30.12,NNE,22,1.0,6.0,86,0.00,,,0.00,meteohub,2013-07-10 01:32:00,
2013-07-09 21:37:00,69.6,65.3,30.12,NE,45,0.0,4.0,86,0.00,,,0.00,meteohub,2013-07-10 01:37:00,
2013-07-09 21:42:00,69.4,65.1,30.12,South,180,0.0,3.0,86,0.00,,,0.00,meteohub,2013-07-10 01:42:00,
2013-07-09 21:47:00,69.4,65.1,30.12,NE,45,0.0,3.0,86,0.00,,,0.00,meteohub,2013-07-10 01:47:00,
2013-07-09 21:52:00,69.4,65.1,30.12,SSE,158,2.0,3.0,86,0.00,,,0.00,meteohub,2013-07-10 01:52:00,
2013-07-09 21:57:00,69.4,65.1,30.12,NE,45,0.0,3.0,86,0.00,,,0.00,meteohub,2013-07-10 01:57:00,
2013-07-09 22:02:00,69.4,65.1,30.12,NNW,338,2.0,3.0,86,0.00,,,0.00,meteohub,2013-07-10 02:02:00,
2013-07-09 22:07:00,69.4,65.1,30.12,ENE,68,0.0,3.0,86,0.00,,,0.00,meteohub,2013-07-10 02:07:00,
2013-07-09 22:12:00,69.4,65.5,30.12,NNE,22,3.0,3.0,87,0.00,,,0.00,meteohub,2013-07-10 02:12:00,
2013-07-09 22:17:00,69.4,65.5,30.12,SSE,158,0.0,3.0,87,0.00,,,0.00,meteohub,2013-07-10 02:17:00,
2013-07-09 22:22:00,69.4,65.5,30.12,NE,45,1.0,3.0,87,0.00,,,0.00,meteohub,2013-07-10 02:22:00,
2013-07-09 22:27:00,69.3,65.3,30.12,ENE,68,0.0,3.0,87,0.00,,,0.00,meteohub,2013-07-10 02:27:00,
2013-07-09 22:32:00,69.3,65.5,30.12,ENE,68,0.0,1.0,88,0.00,,,0.00,meteohub,2013-07-10 02:32:00,
2013-07-09 22:37:00,69.3,65.3,30.12,ENE,68,2.0,2.0,87,0.00,,,0.00,meteohub,2013-07-10 02:37:00,
2013-07-09 22:42:00,69.1,65.3,30.12,ENE,68,0.0,3.0,88,0.00,,,0.00,meteohub,2013-07-10 02:42:00,
2013-07-09 22:47:00,69.3,65.3,30.09,ENE,68,0.0,3.0,87,0.00,,,0.00,meteohub,2013-07-10 02:47:00,
2013-07-09 22:52:00,69.1,65.3,30.09,ENE,68,0.0,3.0,88,0.00,,,0.00,meteohub,2013-07-10 02:52:00,
2013-07-09 22:57:00,69.1,65.1,30.09,NNW,338,3.0,3.0,87,0.00,,,0.00,meteohub,2013-07-10 02:57:00,
2013-07-09 23:02:00,69.1,65.1,30.12,South,180,0.0,4.0,87,0.00,,,0.00,meteohub,2013-07-10 03:02:00,
2013-07-09 23:07:00,68.9,64.9,30.12,NNE,22,2.0,4.0,87,0.00,,,0.00,meteohub,2013-07-10 03:07:00,
2013-07-09 23:12:00,68.9,64.6,30.12,ENE,68,0.0,4.0,86,0.00,,,0.00,meteohub,2013-07-10 03:12:00,
2013-07-09 23:17:00,68.9,64.6,30.12,NE,45,0.0,3.0,86,0.00,,,0.00,meteohub,2013-07-10 03:17:00,
2013-07-09 23:22:00,68.9,64.6,30.12,North,0,0.0,3.0,86,0.00,,,0.00,meteohub,2013-07-10 03:22:00,
2013-07-09 23:27:00,68.9,64.6,30.12,NE,45,0.0,3.0,86,0.00,,,0.00,meteohub,2013-07-10 03:27:00,
2013-07-09 23:32:00,68.9,64.6,30.09,NE,45,0.0,2.0,86,0.00,,,0.00,meteohub,2013-07-10 03:32:00,
2013-07-09 23:37:00,68.9,64.9,30.09,NE,45,0.0,1.0,87,0.00,,,0.00,meteohub,2013-07-10 03:37:00,
2013-07-09 23:42:00,68.7,64.8,30.09,ENE,68,0.0,1.0,87,0.00,,,0.00,meteohub,2013-07-10 03:42:00,
2013-07-09 23:47:00,68.7,64.8,30.12,SE,135,0.0,1.0,87,0.00,,,0.00,meteohub,2013-07-10 03:47:00,
2013-07-09 23:52:00,68.7,64.8,30.12,SE,135,0.0,0.0,87,0.00,,,0.00,meteohub,2013-07-10 03:52:00,
2013-07-09 23:57:00,68.7,64.8,30.12,South,180,0.0,0.0,87,0.00,,,0.00,meteohub,2013-07-10 03:57:00,